星链-31597 (STARLINK-31597 )

导读

STARLINK-31597是美国太空探索技术公司SpaceX星链星座的卫星,于2024年4月10日发射,归属星链互联网卫星网络,承担全球低轨卫星互联网接入服务任务。它运行在近地轨道,是星链星座批量部署过程中的一员,助力扩展星链系统全球通信覆盖范围。

Basic Information
目录编号:
59464
目录名称:
STARLINK-31597
国际标识:
2024-068K
轨道中心:
EARTH
卫星名称:
星链-31597
卫星全名:
星链-31597 (STARLINK-31597 )
卫星状态:
在轨 (已飞行877 天)
发射日期:
2024-04-10 UTC
国别 :
美国 (US)
星等 :
--
Orbit Information
数据来源 国际轨道数据
星历时间: 2026-09-04T08:09:20+0800
12小时前
查看轨道信息
半长轴: 6861.196km
偏心率: 0.0001239
轨道倾角: 43.004°
近地点辐角 265.656°
升交点赤经 107.504°
平近点角 94.415°
近地点: 482.208km
远地点: 483.91km
周期: 94.267分钟
每日圈数: 15.275768
Detailed Information
固有亮度:
5
最大亮度:
1.5
卫星平台:
Starlink v2.0 mini
覆盖范围:
全球
运营商:
太空探索技术公司
运营商所在国:
美国
制造商(研发单位):
太空探索技术公司
制造商所在国:
美国
使用方式:
暂无
Satellite Introduction
星链(Starlink)计划是由太空探索技术公司(SpaceX)提出的一个巨型低轨卫星互联网星座项目,计划在2019年至2024年间在太空搭建由约1.2万颗卫星组成的“星链”网络,其中1584颗将部署在地球上空550千米处的近地轨道,并从2020年开始工作。该卫星仍在工作。
2D Orbit Map
3D Orbit Map
Orbit Altitude Analysis Chart
Orbit Inclination Analysis Chart
Orbit Comprehensive Analysis Chart
View Comprehensive Chart
Conjunction Data List
Event ID Objects TCA Miss Dist (km) Collision Risk Probability Collision Risk Index (CRI) Action
CDM_260904-160605-946406-261921
IRIS-F3 (62619)
2026-09-04T
16:06:03+0000
1.326 km
极远距离
9.573414E-6 低风险 0.55
CDM_260903-013404-381505-946422
2026-09-03T
01:34:39+0000
2.154 km
极远距离
2.306779E-6 低风险 0.42
CDM_260905-004405-946406-261921
IRIS-F3 (62619)
2026-09-05T
00:44:29+0000
2.204 km
极远距离
2.136334E-6 低风险 0.42